GW6317 Weather Reports


time (UTC)temp
C
wind
direction
speed
KPH
gust
KPH
rain 1hr
cm
rain 24hr
cm
rain mn
cm
humidity
%
barometer
mb
20260506004534 19 323 29.0 43.5 0.00 0.00 0.00 33 1014.0
20260506004015 19 316 22.5 37.0 0.00 0.00 0.00 34 1014.0
20260506003514 19 318 24.1 37.0 0.00 0.00 0.00 34 1013.9
20260506003032 20 22 20.9 30.6 0.00 0.00 0.00 35 1013.9
20260506002514 19 344 16.1 37.0 0.00 0.00 0.00 35 1013.8
20260506002015 18 323 24.1 37.0 0.00 0.00 0.00 33 1013.8
20260506001533 18 340 17.7 41.8 0.00 0.00 0.00 37 1013.8
20260506001014 18 26 22.5 46.7 0.00 0.00 0.00 34 1013.8
20260506000514 19 327 27.4 46.7 0.00 0.00 0.00 33 1013.9
20260506000038 19 336 24.1 41.8 0.00 0.00 0.00 34 1013.9
20260505235514 18 309 17.7 33.8 0.00 0.00 0.00 35 1013.6
20260505235015 17 335 16.1 35.4 0.00 0.00 0.00 37 1013.8
20260505234529 17 327 17.7 35.4 0.00 0.00 0.00 38 1013.7
20260505234018 18 322 22.5 41.8 0.00 0.00 0.00 36 1013.7
20260505233512 18 323 17.7 41.8 0.00 0.00 0.00 36 1013.7
20260505233030 20 319 14.5 33.8 0.00 0.00 0.00 37 1013.8
20260505232517 19 315 19.3 33.8 0.00 0.00 0.00 36 1013.7
20260505232015 18 324 20.9 33.8 0.00 0.00 0.00 36 1013.7
20260505231535 17 326 17.7 29.0 0.00 0.00 0.00 39 1013.6
20260505231017 17 352 17.7 33.8 0.00 0.00 0.00 39 1013.8
20260505230514 17 325 14.5 38.6 0.00 0.00 0.00 39 1013.9
20260505230036 18 331 25.7 41.8 0.00 0.00 0.00 36 1013.9
20260505225516 19 327 29.0 41.8 0.00 0.00 0.00 33 1013.9
20260505225015 20 323 16.1 32.2 0.00 0.00 0.00 36 1013.8
20260505224532 19 336 14.5 35.4 0.00 0.00 0.00 38 1013.8
20260505224014 18 313 17.7 35.4 0.00 0.00 0.00 38 1013.8
20260505223517 18 337 19.3 40.2 0.00 0.00 0.00 38 1013.8
20260505223034 19 323 20.9 40.2 0.00 0.00 0.00 39 1013.9
20260505222515 18 336 27.4 41.8 0.00 0.00 0.00 37 1014.0
20260505222015 18 335 24.1 41.8 0.00 0.00 0.00 37 1014.0
20260505221531 19 332 19.3 37.0 0.00 0.00 0.00 38 1014.0
20260505221015 19 326 24.1 37.0 0.00 0.00 0.00 36 1013.9
20260505220514 19 294 20.9 33.8 0.00 0.00 0.00 37 1013.9
20260505220031 18 310 19.3 35.4 0.00 0.00 0.00 40 1013.9
20260505215514 18 310 22.5 35.4 0.00 0.00 0.00 39 1014.1
20260505215014 17 352 20.9 33.8 0.00 0.00 0.00 39 1014.0
20260505214544 17 321 19.3 35.4 0.00 0.00 0.00 41 1014.0
20260505214015 17 331 22.5 35.4 0.00 0.00 0.00 39 1014.0
20260505213518 16 320 20.9 45.1 0.00 0.00 0.00 41 1014.1
20260505213028 17 332 24.1 45.1 0.00 0.00 0.00 40 1014.0
20260505212514 17 313 25.7 41.8 0.00 0.00 0.00 38 1014.0
20260505212015 18 360 24.1 37.0 0.00 0.00 0.00 38 1014.0
20260505211534 18 332 20.9 35.4 0.00 0.00 0.00 38 1014.1
20260505211016 17 321 17.7 33.8 0.00 0.00 0.00 40 1014.0
20260505210514 18 315 20.9 30.6 0.00 0.00 0.00 37 1014.0
20260505210036 19 325 22.5 30.6 0.00 0.00 0.00 34 1013.9
20260505205515 19 360 14.5 27.4 0.00 0.00 0.00 34 1013.9
20260505205017 18 352 16.1 24.1 0.00 0.00 0.00 38 1014.0
20260505204533 17 342 11.3 22.5 0.00 0.00 0.00 43 1013.9
20260505204014 17 290 8.0 20.9 0.00 0.00 0.00 43 1014.0
20260505203520 17 311 9.7 20.9 0.00 0.00 0.00 44 1014.0
20260505203030 17 260 8.0 27.4 0.00 0.00 0.00 45 1014.0
20260505202514 16 295 16.1 30.6 0.00 0.00 0.00 43 1013.9
20260505202015 16 316 17.7 30.6 0.00 0.00 0.00 45 1014.1
20260505201533 17 327 11.3 24.1 0.00 0.00 0.00 43 1014.0
20260505201015 18 319 12.9 22.5 0.00 0.00 0.00 42 1014.0
20260505200515 18 219 3.2 9.7 0.00 0.00 0.00 45 1014.0
20260505200041 19 235 1.6 9.7 0.00 0.00 0.00 45 1014.2
20260505195513 19 217 3.2 12.9 0.00 0.00 0.00 46 1014.5
20260505195014 18 264 3.2 14.5 0.00 0.00 0.00 45 1014.4
20260505194530 18 238 6.4 20.9 0.00 0.00 0.00 49 1014.4
20260505194016 17 291 4.8 20.9 0.00 0.00 0.00 46 1014.4
20260505193518 19 335 8.0 16.1 0.00 0.00 0.00 43 1014.6
20260505193034 20 273 3.2 11.3 0.00 0.00 0.00 48 1014.6
20260505192519 20 259 1.6 9.7 0.00 0.00 0.00 44 1014.5
20260505192016 20 255 4.8 11.3 0.00 0.00 0.00 49 1014.5
20260505191529 19 263 4.8 11.3 0.00 0.00 0.00 48 1014.5
20260505191016 19 230 4.8 14.5 0.00 0.00 0.00 50 1014.5
20260505190514 18 230 4.8 14.5 0.00 0.00 0.00 49 1014.5
20260505190031 18 277 3.2 11.3 0.00 0.00 0.00 51 1014.5
20260505185518 17 260 3.2 8.0 0.00 0.00 0.00 56 1014.5
20260505185019 17 221 3.2 11.3 0.00 0.00 0.00 55 1014.5
20260505184533 17 279 4.8 11.3 0.00 0.00 0.00 52 1014.4
20260505184014 16 277 1.6 11.3 0.00 0.00 0.00 56 1014.4
20260505183513 16 273 3.2 12.9 0.00 0.00 0.00 58 1014.6
20260505183041 16 209 4.8 14.5 0.00 0.00 0.00 57 1014.4
20260505182516 16 350 4.8 14.5 0.00 0.00 0.00 58 1014.6
20260505182018 15 177 1.6 8.0 0.00 0.00 0.00 57 1014.6
20260505181532 15 288 4.8 8.0 0.00 0.00 0.00 58 1014.5
20260505181014 15 298 3.2 8.0 0.00 0.00 0.00 62 1014.8
20260505180514 15 271 1.6 9.7 0.00 0.00 0.00 61 1014.6
20260505180029 15 281 4.8 9.7 0.00 0.00 0.00 59 1014.7
20260505175514 15 238 3.2 8.0 0.00 0.00 0.00 63 1014.6
20260505175014 14 224 1.6 6.4 0.00 0.00 0.00 61 1014.6
20260505174534 14 257 3.2 6.4 0.00 0.00 0.00 64 1014.5
20260505174014 13 278 1.6 6.4 0.00 0.00 0.00 69 1014.5
20260505173519 13 250 3.2 6.4 0.00 0.00 0.00 68 1014.5
20260505173032 12 294 3.2 6.4 0.00 0.00 0.00 71 1014.5
20260505172514 12 310 1.6 8.0 0.00 0.00 0.00 73 1014.5
20260505172013 11 275 3.2 12.9 0.00 0.00 0.00 75 1014.5
20260505171532 11 301 6.4 12.9 0.00 0.00 0.00 71 1014.5
20260505171014 11 332 1.6 9.7 0.00 0.00 0.00 74 1014.5
20260505170513 11 253 3.2 9.7 0.00 0.00 0.00 73 1014.6
20260505170030 11 252 1.6 9.7 0.00 0.00 0.00 78 1014.5
20260505165513 10 240 3.2 8.0 0.00 0.00 0.00 78 1014.6
20260505165014 10 5 1.6 8.0 0.00 0.00 0.00 78 1014.6
20260505164530 10 260 3.2 8.0 0.00 0.00 0.00 78 1014.4
20260505164016 10 211 1.6 6.4 0.00 0.00 0.00 79 1014.4
20260505163514 10 217 3.2 6.4 0.00 0.00 0.00 78 1014.4
20260505163032 10 181 3.2 6.4 0.00 0.00 0.00 84 1014.5
20260505162513 9 250 1.6 8.0 0.00 0.00 0.00 82 1014.5
20260505162013 9 138 4.8 11.3 0.00 0.00 0.00 83 1014.6
20260505161530 9 205 1.6 11.3 0.00 0.00 0.00 84 1014.6
20260505161015 8 175 6.4 11.3 0.00 0.00 0.00 84 1014.6
20260505160516 8 200 4.8 9.7 0.00 0.00 0.00 85 1014.6
20260505153030 7 210 3.2 9.7 0.00 0.00 0.00 88 1014.5
20260505152518 7 140 4.8 8.0 0.00 0.00 0.00 89 1014.4
20260505152017 7 196 1.6 6.4 0.00 0.00 0.00 89 1014.4
20260505151535 7 171 1.6 8.0 0.00 0.00 0.00 90 1014.3
20260505151015 7 198 3.2 8.0 0.00 0.00 0.00 90 1014.4
20260505150520 7 165 3.2 6.4 0.00 0.00 0.00 91 1014.2
20260505140515 6 165 1.6 6.4 0.00 0.00 0.00 93 1013.7
20260505125018 6 0 0.0 3.2 0.00 0.00 0.00 94 1013.0
20260505124536 5 0 0.0 3.2 0.00 0.00 0.00 93 1013.1
20260505124012 5 84 0.0 3.2 0.00 0.00 0.00 93 1013.1
20260505123519 5 0 0.0 3.2 0.00 0.00 0.00 93 1013.0
20260505123032 5 0 0.0 3.2 0.00 0.00 0.00 93 1013.0
20260505122515 5 0 0.0 3.2 0.00 0.00 0.00 93 1013.0
20260505122015 5 109 0.0 4.8 0.00 0.00 0.00 93 1012.9
20260505121536 5 138 1.6 6.4 0.00 0.00 0.00 93 1012.9
20260505121015 5 117 3.2 6.4 0.00 0.00 0.00 93 1012.8
20260505120515 5 150 1.6 6.4 0.00 0.00 0.00 93 1012.7
20260505120043 5 133 3.2 9.7 0.00 0.00 0.00 93 1012.5
20260505115519 5 161 4.8 9.7 0.00 0.00 0.00 93 1012.6
20260505115023 5 150 3.2 9.7 0.00 0.00 0.00 93 1012.6
20260505114536 5 173 6.4 9.7 0.00 0.00 0.00 92 1012.6
20260505114016 5 171 4.8 9.7 0.00 0.00 0.00 92 1012.5
20260505113515 5 159 1.6 6.4 0.00 0.00 0.00 91 1012.5
20260505113031 5 0 0.0 3.2 0.00 0.00 0.00 92 1012.5
20260505112515 5 113 0.0 4.8 0.00 0.00 0.00 92 1012.5
20260505112015 5 141 1.6 6.4 0.00 0.00 0.00 92 1012.5
20260505111533 6 122 1.6 6.4 0.00 0.00 0.00 92 1012.5
20260505111015 6 104 4.8 9.7 0.00 0.00 0.00 92 1012.5
20260505110515 6 92 3.2 9.7 0.00 0.00 0.00 92 1012.5
20260505102015 6 170 4.8 11.3 0.00 0.00 0.00 91 1012.5
20260505101542 6 141 4.8 9.7 0.00 0.00 0.00 91 1012.5
20260505101017 6 158 6.4 9.7 0.00 0.00 0.00 91 1012.5
20260505100515 6 146 4.8 11.3 0.00 0.00 0.00 91 1012.6
20260505100031 6 132 4.8 12.9 0.00 0.00 0.00 91 1012.4
20260505095515 6 137 6.4 12.9 0.00 0.00 0.00 91 1012.3
20260505095015 6 151 4.8 9.7 0.00 0.00 0.00 91 1012.5
20260505094539 6 151 4.8 11.3 0.00 0.00 0.00 91 1012.4
20260505094015 7 134 6.4 12.9 0.00 0.00 0.00 91 1012.4
20260505093515 7 159 8.0 14.5 0.00 0.00 0.00 91 1012.3
20260505093035 7 161 8.0 14.5 0.00 0.00 0.00 91 1012.5
20260505092518 7 135 4.8 9.7 0.00 0.00 0.00 91 1012.6
20260505092016 7 105 3.2 9.7 0.00 0.00 0.00 90 1012.7
20260505091539 7 150 3.2 8.0 0.00 0.00 0.00 90 1012.5
20260505091018 7 172 3.2 6.4 0.00 0.00 0.00 90 1012.7
20260505090518 7 157 3.2 9.7 0.00 0.00 0.00 90 1012.7
20260505090032 7 108 1.6 11.3 0.00 0.00 0.00 90 1012.8
20260505085522 7 175 4.8 11.3 0.00 0.00 0.00 90 1012.7
20260505085016 7 173 6.4 9.7 0.00 0.00 0.00 90 1012.8
20260505084535 7 158 3.2 8.0 0.00 0.00 0.00 89 1012.8
20260505084016 7 156 3.2 8.0 0.00 0.00 0.00 89 1012.9
20260505083515 7 161 3.2 12.9 0.00 0.00 0.00 89 1012.9
20260505083035 7 199 6.4 12.9 0.00 0.00 0.00 89 1012.9
20260505082521 7 202 1.6 6.4 0.00 0.00 0.00 89 1013.0
20260505082019 7 204 3.2 8.0 0.00 0.00 0.00 89 1012.9
20260505081530 7 178 3.2 12.9 0.00 0.00 0.00 89 1012.8
20260505081024 7 183 3.2 12.9 0.00 0.00 0.00 89 1012.8
20260505080516 7 178 4.8 11.3 0.00 0.00 0.00 89 1012.8
20260505080032 7 173 4.8 11.3 0.00 0.00 0.00 89 1012.7
20260505075516 7 162 4.8 11.3 0.00 0.00 0.00 89 1012.8
20260505075021 7 179 4.8 11.3 0.00 0.00 0.00 89 1012.8
20260505074535 7 169 4.8 9.7 0.00 0.00 0.00 89 1012.8
20260505074016 7 167 4.8 9.7 0.00 0.00 0.00 89 1012.5
20260505073520 7 157 1.6 11.3 0.00 0.00 0.00 89 1012.7
20260505073037 7 176 3.2 11.3 0.00 0.00 0.00 89 1012.7
20260505072516 7 190 6.4 14.5 0.00 0.00 0.00 89 1012.7
20260505072016 7 185 4.8 14.5 0.00 0.00 0.00 89 1012.6
20260505071534 7 202 4.8 12.9 0.00 0.00 0.00 89 1012.6
20260505071019 7 167 4.8 16.1 0.00 0.00 0.00 89 1012.5
20260505070521 7 189 6.4 16.1 0.00 0.00 0.00 89 1012.6
20260505070041 7 200 8.0 16.1 0.00 0.00 0.00 89 1012.5
20260505065516 7 175 8.0 17.7 0.00 0.00 0.00 89 1012.5
20260505065016 7 153 9.7 17.7 0.00 0.00 0.00 89 1012.3
20260505064539 7 144 8.0 19.3 0.00 0.00 0.00 88 1012.2
20260505064016 8 167 9.7 19.3 0.00 0.00 0.00 88 1012.1
20260505063513 8 175 8.0 19.3 0.00 0.00 0.00 88 1012.2
20260505063030 8 174 14.5 19.3 0.00 0.00 0.00 88 1012.2
20260505062517 8 151 6.4 14.5 0.00 0.00 0.00 87 1012.4
20260505062012 8 161 6.4 19.3 0.00 0.00 0.00 87 1012.3
20260505061534 8 126 9.7 19.3 0.00 0.00 0.00 87 1012.2
20260505061018 8 134 9.7 19.3 0.00 0.00 0.00 87 1012.0
20260505060515 8 129 11.3 19.3 0.00 0.00 0.00 86 1011.9
20260505060044 8 131 9.7 19.3 0.00 0.00 0.00 85 1011.8
20260505055518 8 138 9.7 19.3 0.00 0.00 0.00 84 1011.7
20260505055015 8 156 11.3 17.7 0.00 0.00 0.00 83 1011.8
20260505054533 9 165 12.9 17.7 0.00 0.00 0.00 82 1011.6
20260505054016 9 139 11.3 17.7 0.00 0.00 0.00 81 1011.6
20260505053515 9 171 12.9 17.7 0.00 0.00 0.00 80 1011.5
20260505053033 10 138 8.0 17.7 0.00 0.00 0.00 79 1011.4
20260505052515 10 177 11.3 17.7 0.00 0.00 0.00 78 1011.3
20260505052015 10 153 9.7 12.9 0.00 0.00 0.00 77 1011.3
20260505051535 10 146 6.4 11.3 0.00 0.00 0.00 75 1011.3
20260505051015 10 113 8.0 17.7 0.00 0.00 0.00 74 1011.2
20260505050515 10 122 11.3 19.3 0.00 0.00 0.00 75 1011.1
20260505041530 11 112 9.7 19.3 0.00 0.00 0.00 72 1010.9
20260505041015 11 128 9.7 19.3 0.00 0.00 0.00 73 1010.8
20260505040515 11 61 9.7 19.3 0.00 0.00 0.00 71 1010.7
20260505040032 11 119 9.7 19.3 0.00 0.00 0.00 70 1010.5
20260505035518 11 143 9.7 17.7 0.00 0.00 0.00 70 1010.3
20260505035014 11 122 9.7 17.7 0.00 0.00 0.00 68 1010.1
20260505034530 12 129 9.7 19.3 0.00 0.00 0.00 67 1009.9
20260505034015 12 134 11.3 19.3 0.00 0.00 0.00 66 1009.7
20260505033516 12 121 8.0 16.1 0.00 0.00 0.00 65 1009.7
20260505033031 12 133 8.0 17.7 0.00 0.00 0.00 64 1009.6
20260505032518 12 157 11.3 17.7 0.00 0.00 0.00 63 1009.6
20260505032015 13 161 9.7 16.1 0.00 0.00 0.00 62 1009.6
20260505031534 13 92 8.0 14.5 0.00 0.00 0.00 60 1009.5
20260505031015 13 150 8.0 16.1 0.00 0.00 0.00 59 1009.4
20260505030519 14 132 11.3 16.1 0.00 0.00 0.00 51 1009.4
20260505030035 15 186 6.4 11.3 0.00 0.00 0.00 51 1009.3
20260505025518 15 178 4.8 12.9 0.00 0.00 0.00 49 1009.4
20260505025019 16 296 3.2 16.1 0.00 0.00 0.00 32 1009.3
20260505024532 16 5 8.0 16.1 0.00 0.00 0.00 32 1009.3
20260505024015 16 346 6.4 20.9 0.00 0.00 0.00 31 1009.1
20260505023519 16 350 9.7 20.9 0.00 0.00 0.00 31 1009.1
20260505023039 16 350 11.3 29.0 0.00 0.00 0.00 29 1009.0
20260505022518 17 5 16.1 29.0 0.00 0.00 0.00 29 1009.0
20260505022022 16 352 9.7 19.3 0.00 0.00 0.00 28 1008.9
20260505021536 17 352 6.4 20.9 0.00 0.00 0.00 28 1009.0
20260505021017 17 12 9.7 20.9 0.00 0.00 0.00 29 1008.9
20260505020519 17 338 8.0 19.3 0.00 0.00 0.00 27 1008.9
20260505020035 17 43 9.7 19.3 0.00 0.00 0.00 26 1008.8
20260505015519 17 326 9.7 22.5 0.00 0.00 0.00 26 1008.8
20260505015015 17 9 11.3 33.8 0.00 0.00 0.00 24 1008.9
20260505014535 17 24 11.3 33.8 0.00 0.00 0.00 24 1009.0
20260505014019 17 9 8.0 22.5 0.00 0.00 0.00 24 1009.0
20260505013515 17 352 11.3 22.5 0.00 0.00 0.00 23 1008.9
20260505013048 18 335 9.7 24.1 0.00 0.00 0.00 22 1009.0
20260505012515 18 17 8.0 25.7 0.00 0.00 0.00 23 1009.0
20260505012018 18 5 16.1 27.4 0.00 0.00 0.00 22 1008.9
20260505011539 18 36 6.4 27.4 0.00 0.00 0.00 22 1008.9
20260505011017 18 257 12.9 27.4 0.00 0.00 0.00 21 1008.9
20260505010520 18 22 8.0 30.6 0.00 0.00 0.00 21 1008.9
20260505010038 18 22 9.7 32.2 0.00 0.00 0.00 21 1008.9
20260505005520 18 352 19.3 37.0 0.00 0.00 0.00 20 1009.0
20260505005018 18 341 22.5 35.4 0.00 0.00 0.00 20 1009.0